Date,TemperatureHighF,TemperatureAvgF,TemperatureLowF,DewpointHighF,DewpointAvgF,DewpointLowF,HumidityHigh,HumidityAvg,HumidityLow,PressureMaxIn,PressureMinIn,WindSpeedMaxMPH,WindSpeedAvgMPH,GustSpeedMaxMPH,PrecipitationSumIn
2014-1-1,64,53,41,54,48,40,100,84,55,30.11,30.00,8,0,10,0.01
2014-1-2,74,56,44,55,47,40,97,75,36,30.07,29.97,6,0,7,0.01
2014-1-3,68,54,44,54,49,43,98,84,47,30.01,29.88,6,0,7,0.00
2014-1-4,65,55,50,58,52,48,96,89,73,30.00,29.91,7,0,8,0.00
2014-1-5,71,56,46,57,46,22,99,74,32,30.12,30.00,6,0,9,0.01
2014-1-6,75,60,49,47,29,15,52,33,12,30.17,30.07,8,0,8,0.00
2014-1-7,68,56,47,57,40,21,96,61,20,30.12,30.01,10,0,10,0.00
2014-1-8,63,55,47,56,52,46,98,90,75,30.11,29.99,11,0,12,0.00
2014-1-9,61,55,48,54,51,46,96,88,75,30.07,29.96,7,0,8,0.00
2014-1-10,66,54,45,55,50,44,98,87,59,30.10,30.00,9,0,9,0.01
2014-1-11,70,56,47,55,49,42,97,80,43,30.14,30.03,7,0,7,0.01
2014-1-12,62,54,48,56,52,47,100,93,79,30.14,30.01,8,0,9,0.01
2014-1-13,78,60,46,49,34,19,97,45,12,30.27,30.11,8,0,11,0.00
2014-1-14,81,64,49,43,29,18,46,28,11,30.26,30.14,9,1,11,0.00
2014-1-15,84,66,53,42,27,19,45,24,10,30.18,30.06,7,0,11,0.00
2014-1-16,82,64,53,40,27,19,36,26,10,30.10,29.99,7,0,10,0.00
2014-1-17,82,64,53,40,27,16,42,26,9,30.08,29.99,7,0,9,0.00
2014-1-18,77,60,49,42,29,20,57,33,13,30.07,29.97,6,0,6,0.00
2014-1-19,76,60,51,48,34,23,58,39,18,30.09,30.01,7,0,9,0.00
2014-1-20,72,58,49,53,40,29,85,52,26,30.15,30.03,7,0,8,0.00
2014-1-21,74,60,47,52,44,32,94,60,25,30.14,30.01,6,0,8,0.00
2014-1-22,74,58,49,57,52,40,96,83,33,30.05,29.88,8,0,8,0.00
2014-1-23,62,54,46,55,51,45,97,90,75,30.07,29.88,8,0,9,0.00
2014-1-24,65,58,53,58,55,52,97,87,71,30.20,30.05,6,0,7,0.00
2014-1-25,72,62,55,60,54,49,94,78,48,30.19,30.08,8,0,9,0.00
2014-1-26,67,58,49,57,54,48,96,87,65,30.13,30.00,7,0,7,0.00
2014-1-27,67,59,52,57,55,51,98,88,69,30.10,29.98,10,0,11,0.00
2014-1-28,64,55,50,58,53,49,98,93,77,30.11,30.00,8,0,8,0.01
2014-1-29,64,55,47,57,52,46,99,93,76,30.08,29.93,8,0,9,0.00
2014-1-30,60,57,54,57,55,52,95,91,80,29.96,29.86,8,0,11,0.01
2014-1-31,62,56,48,56,51,45,96,85,66,29.98,29.88,11,0,11,0.00
2014-2-1,63,53,45,51,46,41,97,78,53,30.05,29.92,12,0,12,0.00
2014-2-2,62,52,43,52,45,37,86,76,45,30.09,29.94,13,1,14,0.00
2014-2-3,60,52,46,52,48,45,96,84,67,29.99,29.86,11,0,11,0.00
2014-2-4,61,53,48,51,47,45,93,80,62,30.08,29.98,10,0,12,0.00
2014-2-5,54,51,49,49,47,46,92,88,83,30.07,30.04,0,0,1,0.00
2014-2-6,62,54,49,53,50,47,97,87,71,30.07,29.98,12,1,12,0.00
2014-2-7,63,56,53,56,53,50,98,88,67,30.20,30.02,12,0,12,0.00
2014-2-8,63,56,48,55,52,46,100,87,67,30.26,30.16,11,1,14,0.00
2014-2-9,63,57,53,56,53,52,96,89,75,30.21,30.09,7,0,10,0.00
2014-2-10,64,56,50,57,54,50,98,91,75,30.14,30.00,7,0,8,0.00
2014-2-11,66,56,50,58,54,49,98,92,76,30.07,29.99,8,0,9,0.00
2014-2-12,74,59,47,57,49,43,100,74,36,30.12,30.00,8,0,9,0.00
2014-2-13,76,61,49,58,50,42,92,71,35,30.05,29.95,6,0,7,0.00
2014-2-14,76,59,48,56,50,44,94,75,33,30.02,29.93,11,0,11,0.00
2014-2-15,75,58,48,56,48,40,96,73,31,30.01,29.91,7,0,10,0.00
2014-2-16,72,58,53,59,55,52,100,90,54,30.04,29.94,7,0,8,0.00
2014-2-17,63,56,49,57,53,48,98,90,81,30.06,29.98,10,0,11,0.00
2014-2-18,62,57,54,54,52,50,92,84,74,30.05,29.94,8,0,8,0.00
2014-2-19,64,56,50,55,52,49,96,87,71,29.99,29.89,11,0,11,0.00
2014-2-20,72,58,47,57,50,42,98,75,45,30.00,29.91,9,0,10,0.00
2014-2-21,76,59,52,59,54,44,98,84,33,29.97,29.86,7,0,11,0.00
2014-2-22,69,57,48,56,49,42,96,76,39,29.92,29.83,6,0,7,0.01
2014-2-23,68,56,45,57,51,43,96,84,53,29.98,29.89,9,0,9,0.00
2014-2-24,65,56,47,57,52,46,98,90,70,30.01,29.91,7,0,8,0.01
2014-2-25,65,59,54,56,54,50,91,82,71,30.04,29.94,11,1,13,0.00
2014-2-26,66,58,53,55,53,50,93,83,60,30.07,30.00,12,0,12,0.00
2014-2-27,65,59,55,62,57,52,97,93,84,30.03,29.84,7,0,11,0.00
2014-2-28,66,60,56,63,59,54,98,96,86,29.84,29.69,25,3,25,0.00
2014-3-1,63,57,52,59,55,51,98,92,76,29.95,29.76,13,1,13,0.02
2014-3-2,64,56,52,59,54,50,99,93,75,30.13,29.95,6,0,6,0.01
2014-3-3,64,56,48,58,53,47,100,90,72,30.11,30.00,11,1,15,0.01
2014-3-4,65,58,53,56,54,52,97,88,69,30.05,29.94,9,0,11,0.00
2014-3-5,64,58,50,59,56,49,99,92,80,30.06,29.98,11,0,11,0.00
2014-3-6,68,60,57,60,58,56,96,90,74,30.08,29.95,9,1,11,0.00
2014-3-7,66,60,54,59,57,53,97,91,76,29.99,29.88,8,0,9,0.00
2014-3-8,77,64,49,54,47,38,98,61,26,30.09,29.93,10,1,12,0.00
2014-3-9,82,68,54,48,37,28,59,34,17,30.10,30.01,11,1,13,0.00
2014-3-10,76,63,52,57,45,33,94,55,23,30.06,29.97,9,0,10,0.00
2014-3-11,68,58,47,59,54,45,96,87,67,29.98,29.89,10,1,10,0.00
2014-3-12,67,59,52,58,55,51,98,87,68,29.99,29.93,11,1,15,0.00
2014-3-13,65,59,54,55,53,51,93,81,63,30.00,29.90,10,1,11,0.00
2014-3-14,67,58,49,58,54,48,98,86,68,30.11,29.98,10,0,11,0.00
2014-3-15,70,60,52,60,56,51,99,87,69,30.18,30.08,10,0,10,0.00
2014-3-16,90,67,53,56,48,23,86,55,9,30.19,30.05,11,1,12,0.00
2014-3-17,68,60,53,61,55,46,91,83,73,30.07,29.79,15,1,15,0.00
2014-3-18,66,60,54,57,54,52,93,80,68,29.91,29.78,10,1,13,0.00
2014-3-19,68,60,53,58,55,51,96,85,66,30.03,29.91,10,0,13,0.00
2014-3-20,70,59,52,59,55,51,98,88,64,30.03,29.91,9,0,10,0.00
2014-3-21,66,60,56,54,53,51,93,79,63,30.00,29.92,10,0,11,0.00
2014-3-22,64,59,56,55,52,50,87,78,69,30.09,29.97,11,0,12,0.00
2014-3-23,66,60,55,56,54,51,91,83,69,30.12,30.00,12,0,14,0.00
2014-3-24,63,60,58,57,56,55,92,86,80,30.08,29.99,9,0,11,0.00
2014-3-25,64,59,58,57,56,54,95,88,76,30.01,29.89,11,0,11,0.01
2014-3-26,65,60,56,57,54,52,94,81,69,29.99,29.88,12,1,15,0.01
2014-3-27,66,59,52,54,52,49,89,78,65,30.09,29.96,12,1,13,0.00
2014-3-28,66,58,50,56,52,48,93,82,62,30.14,30.06,12,1,12,0.00
2014-3-29,69,59,50,59,54,49,98,86,67,30.12,29.95,10,0,11,0.00
2014-3-30,66,60,52,58,54,50,96,83,64,30.05,29.97,11,1,13,0.00
2014-3-31,65,57,48,55,51,47,97,81,66,30.03,29.97,12,1,15,0.00
2014-4-1,62,57,52,54,49,42,95,76,57,30.02,29.93,11,1,13,0.01
2014-4-2,64,56,49,52,48,44,96,74,54,30.07,29.92,15,1,18,0.00
2014-4-3,63,54,44,53,48,42,94,80,62,30.12,30.02,14,1,14,0.00
2014-4-4,62,54,46,53,50,45,99,85,70,30.04,29.94,10,0,10,0.00
2014-4-5,65,56,50,56,51,47,97,84,66,30.03,29.92,12,1,12,0.00
2014-4-6,69,59,48,58,50,46,94,74,49,30.06,29.98,13,1,13,0.00
2014-4-7,76,64,50,54,47,42,84,58,32,30.07,30.00,9,1,13,0.00
2014-4-8,80,67,54,54,49,42,85,55,33,30.07,29.95,12,1,13,0.00
2014-4-9,81,63,52,58,51,46,92,69,29,30.00,29.91,10,0,10,0.00
2014-4-10,72,59,50,57,53,48,98,82,53,29.96,29.88,7,0,8,0.00
2014-4-11,74,61,52,60,56,49,96,84,53,29.92,29.83,8,0,11,0.00
2014-4-12,66,60,55,54,52,49,91,75,64,29.96,29.86,12,1,12,0.00
2014-4-13,65,59,56,55,51,48,86,76,68,30.01,29.92,14,0,14,0.00
2014-4-14,70,61,53,59,55,50,94,82,60,30.02,29.94,12,1,15,0.00
2014-4-15,65,59,54,59,56,53,98,89,76,30.00,29.82,11,0,13,0.00
2014-4-16,65,59,55,57,54,53,94,85,72,29.87,29.78,11,1,14,0.00
2014-4-17,65,60,57,58,55,54,92,84,75,29.90,29.82,10,1,12,0.00
2014-4-18,67,62,58,59,56,55,90,83,72,29.93,29.83,11,1,11,0.00
2014-4-19,68,62,56,60,57,54,95,85,69,30.03,29.89,11,1,13,0.00
2014-4-20,67,61,55,60,57,54,96,88,77,30.04,29.98,9,1,10,0.00
2014-4-21,69,61,57,62,58,55,96,90,75,30.03,29.94,11,0,12,0.00
2014-4-22,67,61,55,58,56,51,92,82,68,29.97,29.88,12,1,16,0.00
2014-4-23,68,60,51,58,54,49,94,82,67,29.95,29.88,11,1,12,0.00
2014-4-24,69,60,52,59,56,50,95,84,64,29.97,29.89,9,1,12,0.00
2014-4-25,66,60,53,58,55,52,97,86,68,29.93,29.82,14,1,18,0.01
2014-4-26,64,58,53,56,50,46,94,75,60,30.00,29.78,14,2,15,0.00
2014-4-27,66,58,51,57,53,48,93,82,66,30.00,29.93,11,1,13,0.00
2014-4-28,69,60,51,59,54,49,95,80,60,30.00,29.88,10,1,14,0.00
2014-4-29,92,73,53,55,41,22,94,42,8,29.99,29.91,15,1,15,0.00
2014-4-30,94,78,67,45,26,11,44,17,6,29.98,29.86,19,2,31,0.00
2014-5-1,94,76,63,48,31,16,41,21,7,29.99,29.90,19,2,20,0.00
2014-5-2,91,72,58,53,41,30,67,37,13,29.96,29.87,10,0,10,0.00
2014-5-3,86,71,58,65,48,36,95,50,18,29.91,29.83,11,0,11,0.00
2014-5-4,71,63,57,64,59,55,98,87,67,29.99,29.89,9,0,13,0.00
2014-5-5,66,61,54,57,55,53,97,83,70,30.00,29.92,13,1,16,0.01
2014-5-6,65,60,56,55,51,49,83,72,57,29.92,29.85,15,1,15,0.00
2014-5-7,66,59,53,56,52,49,89,78,67,30.01,29.86,14,1,14,0.00
2014-5-8,66,60,55,53,51,49,88,73,61,30.06,29.97,15,1,15,0.00
2014-5-9,68,61,54,59,55,51,92,82,68,30.06,29.96,12,0,12,0.00
2014-5-10,67,62,58,59,56,53,88,81,73,29.96,29.81,13,1,14,0.00
2014-5-11,71,63,53,58,52,42,92,69,43,29.92,29.81,15,2,18,0.00
2014-5-12,89,70,54,54,42,26,58,39,12,29.97,29.89,16,1,16,0.00
2014-5-13,94,78,60,45,32,20,50,21,7,30.03,29.94,20,3,24,0.00
2014-5-14,97,79,61,47,31,10,34,20,4,29.99,29.90,24,0,25,0.00
2014-5-15,96,79,65,46,35,21,39,22,7,29.96,29.88,0,0,0,0.00
2014-5-16,90,74,64,65,47,30,95,44,12,29.95,29.85,0,0,0,0.00
2014-5-17,73,66,61,64,62,58,98,88,67,29.89,29.82,0,0,0,0.00
2014-5-18,68,64,60,60,58,57,91,82,72,29.89,29.82,0,0,0,0.00
2014-5-19,68,64,60,60,57,54,88,79,65,29.95,29.86,0,0,0,0.00
2014-5-20,69,63,58,57,54,51,85,74,62,30.01,29.93,0,0,0,0.00
2014-5-21,68,62,54,58,54,50,90,77,63,29.99,29.93,0,0,0,0.00
2014-5-22,66,62,60,58,56,55,88,82,74,30.01,29.91,0,0,0,0.00
2014-5-23,70,64,60,61,57,55,86,80,69,30.01,29.95,0,0,0,0.00
2014-5-24,66,63,61,60,58,57,89,85,79,30.00,29.92,0,0,0,0.00
2014-5-25,70,65,60,61,59,57,92,82,68,29.96,29.87,0,0,0,0.00
2014-5-26,72,65,59,63,61,57,95,85,72,29.96,29.89,0,0,0,0.00
2014-5-27,71,66,62,64,61,59,92,86,75,29.97,29.89,0,0,0,0.00
2014-5-28,71,65,62,63,60,59,92,85,73,29.92,29.82,0,0,0,0.00
2014-5-29,71,65,60,62,59,58,94,82,70,29.91,29.84,0,0,0,0.00
2014-5-30,70,64,59,63,60,57,96,87,75,29.89,29.83,0,0,0,0.00
2014-5-31,72,64,57,63,60,56,98,88,72,29.89,29.83,0,0,0,0.00
2014-6-1,71,64,56,63,60,56,98,88,73,29.87,29.79,0,0,0,0.01
2014-6-2,70,65,60,62,60,58,95,85,72,29.87,29.81,0,0,0,0.00
2014-6-3,73,65,58,63,60,56,96,85,69,29.89,29.79,0,0,0,0.00
2014-6-4,71,64,58,63,60,57,97,87,72,29.85,29.76,0,0,0,0.00
2014-6-5,69,64,59,61,59,57,96,86,74,29.84,29.78,0,0,0,0.00
2014-6-6,68,64,61,60,59,57,94,84,72,29.84,29.78,0,0,0,0.00
2014-6-7,69,64,59,61,58,56,91,82,69,29.83,29.76,0,0,0,0.00
2014-6-8,70,64,61,62,59,57,91,84,74,29.81,29.73,0,0,0,0.00
2014-6-9,70,65,62,64,62,60,93,89,81,29.80,29.74,0,0,0,0.00
2014-6-10,71,65,62,62,60,58,96,85,71,29.88,29.74,0,0,0,0.00
2014-6-11,72,66,62,62,59,58,87,79,67,29.91,29.83,0,0,0,0.00
2014-6-12,72,66,61,62,60,58,92,80,69,29.94,29.88,0,0,0,0.00
2014-6-13,70,65,60,60,59,57,91,81,68,29.93,29.87,0,0,0,0.00
2014-6-14,71,65,60,61,59,56,93,80,69,29.89,29.80,0,0,0,0.00
2014-6-15,72,65,60,62,59,56,93,82,72,29.87,29.81,0,0,0,0.00
2014-6-16,70,65,61,60,59,57,92,80,69,29.91,29.84,0,0,0,0.00
2014-6-17,71,65,59,61,59,55,94,82,66,29.94,29.86,0,0,0,0.00
2014-6-18,71,64,58,59,57,54,92,79,64,29.93,29.86,0,0,0,0.00
2014-6-19,72,65,56,62,60,54,96,83,71,29.94,29.87,0,0,0,0.00
2014-6-20,74,65,59,65,61,58,96,87,72,29.91,29.85,0,0,0,0.00
2014-6-21,72,65,59,65,61,58,97,88,75,29.89,29.82,0,0,0,0.00
2014-6-22,71,66,60,63,60,57,93,83,72,29.91,29.84,0,0,0,0.00
2014-6-23,71,65,60,62,59,57,93,82,70,29.93,29.85,0,0,0,0.00
2014-6-24,72,66,62,62,60,58,92,81,69,29.94,29.86,0,0,0,0.00
2014-6-25,72,67,63,63,61,60,91,83,71,29.90,29.83,0,0,0,0.00
2014-6-26,73,68,65,64,62,60,89,82,70,29.89,29.84,0,0,0,0.00
2014-6-27,74,67,64,64,62,60,90,83,68,29.87,29.81,0,0,0,0.00
2014-6-28,72,66,63,65,62,60,90,86,76,29.85,29.78,0,0,0,0.00
2014-6-29,72,67,64,65,62,60,90,85,76,29.87,29.82,0,0,0,0.00
2014-6-30,72,67,65,65,62,61,90,85,74,29.89,29.81,0,0,0,0.00
2014-7-1,73,67,63,65,63,61,94,86,73,29.87,29.79,0,0,0,0.00
2014-7-2,73,68,63,66,64,61,95,87,77,29.89,29.81,0,0,0,0.00
2014-7-3,75,68,63,67,64,61,95,87,74,29.91,29.82,0,0,0,0.00
2014-7-4,76,69,63,68,65,62,98,87,74,29.99,29.88,0,0,0,0.00
2014-7-5,81,73,65,69,66,62,97,81,60,30.02,29.95,0,0,0,0.00
2014-7-6,79,72,66,70,67,60,98,84,53,30.00,29.88,0,0,0,0.00
2014-7-7,78,70,64,69,66,62,98,87,72,29.90,29.83,0,0,0,0.00
2014-7-8,76,69,63,66,64,62,96,85,71,29.95,29.86,0,0,0,0.00
2014-7-9,75,69,64,66,64,62,93,83,72,29.95,29.87,0,0,0,0.00
2014-7-10,76,70,66,66,64,62,90,81,70,29.95,29.87,0,0,0,0.00
2014-7-11,76,70,66,66,64,63,91,81,68,29.98,29.91,0,0,0,0.00
2014-7-12,75,69,65,66,64,63,93,84,72,29.99,29.90,0,0,0,0.00
2014-7-13,76,68,64,68,64,62,97,87,75,29.92,29.85,0,0,0,0.00
2014-7-14,74,68,66,67,65,63,92,89,77,29.98,29.87,0,0,0,0.00
2014-7-15,70,68,66,66,64,63,95,89,83,30.03,29.95,0,0,0,0.00
2014-7-16,75,70,65,65,63,62,91,80,66,30.03,29.94,0,0,0,0.00
2014-7-17,76,70,65,65,63,61,88,78,66,30.01,29.95,0,0,0,0.00
2014-7-18,77,69,63,66,63,61,93,80,61,30.00,29.91,0,0,0,0.00
2014-7-19,74,68,65,66,64,62,93,85,74,29.96,29.90,0,0,0,0.00
2014-7-20,76,70,66,68,64,63,89,82,70,29.98,29.91,0,0,0,0.00
2014-7-21,68,67,66,65,64,62,93,88,85,29.99,29.95,0,0,0,0.00
2014-7-22,75,70,65,68,65,63,95,87,76,30.03,29.95,0,0,0,0.00
2014-7-23,80,70,61,69,65,60,99,83,63,29.98,29.86,0,0,0,0.00
2014-7-24,79,72,64,70,67,63,98,86,65,29.87,29.72,0,0,0,0.00
2014-7-25,77,70,67,69,67,65,95,88,76,29.90,29.83,0,0,0,0.00
2014-7-26,77,70,67,69,67,65,97,88,75,29.96,29.87,0,0,0,0.00
2014-7-27,80,71,68,71,68,66,96,90,72,30.00,29.87,0,0,0,0.00
2014-7-28,82,74,68,72,68,62,98,84,55,30.04,29.94,0,0,0,0.00
2014-7-29,82,73,66,71,67,59,98,84,53,30.01,29.91,0,0,0,0.00
2014-7-30,80,72,66,71,68,65,98,88,70,29.94,29.86,0,0,0,0.00
2014-7-31,79,72,68,71,68,65,96,87,71,29.91,29.83,0,0,0,0.00
2014-8-1,77,70,66,69,66,64,93,86,75,29.91,29.83,0,0,0,0.00
2014-8-2,75,70,68,73,68,66,96,93,86,29.94,29.82,0,0,0,0.00
2014-8-3,77,72,70,72,70,68,98,94,81,29.94,29.85,0,0,0,0.00
2014-8-4,79,72,66,73,68,64,99,89,76,29.97,29.89,0,0,0,0.00
2014-8-5,76,68,63,67,64,62,98,88,74,30.01,29.94,0,0,0,0.00
2014-8-6,75,69,64,65,63,60,94,82,70,30.02,29.93,0,0,0,0.00
2014-8-7,75,69,62,64,62,60,94,80,65,29.97,29.87,0,0,0,0.00
2014-8-8,76,69,64,66,64,61,93,83,70,29.92,29.86,0,0,0,0.00
2014-8-9,76,70,65,68,65,62,94,85,73,29.95,29.88,0,0,0,0.00
2014-8-10,76,69,62,68,65,61,99,88,75,29.96,29.88,0,0,0,0.00
2014-8-11,78,72,67,70,67,65,94,86,73,29.93,29.88,0,0,0,0.00
2014-8-12,76,71,69,68,66,64,91,85,75,29.95,29.88,0,0,0,0.00
2014-8-13,76,70,68,68,66,64,91,85,74,29.96,29.89,0,0,0,0.00
2014-8-14,76,71,67,68,66,64,93,85,75,29.94,29.88,0,0,0,0.00
2014-8-15,78,71,65,70,67,64,97,87,73,29.96,29.89,0,0,0,0.00
2014-8-16,79,72,66,70,67,64,97,85,67,29.98,29.88,0,0,0,0.00
2014-8-17,79,71,64,70,67,63,97,87,69,29.94,29.82,0,0,0,0.00
2014-8-18,76,70,66,68,66,63,97,87,73,29.86,29.77,0,0,0,0.00
2014-8-19,75,69,64,65,63,61,91,82,71,29.89,29.82,0,0,0,0.00
2014-8-20,77,69,64,67,64,61,93,83,67,29.93,29.85,0,0,0,0.00
2014-8-21,77,71,67,68,66,64,93,84,73,29.93,29.86,0,0,0,0.00
2014-8-22,77,70,64,69,66,63,97,87,74,29.95,29.89,0,0,0,0.00
2014-8-23,77,68,61,67,64,60,98,86,69,29.95,29.84,0,0,0,0.00
2014-8-24,76,68,62,66,64,60,98,86,69,29.88,29.80,0,0,0,0.01
2014-8-25,76,70,65,68,66,64,96,87,74,29.92,29.83,0,0,0,0.00
2014-8-26,77,70,63,68,66,62,98,86,71,29.95,29.90,0,0,0,0.00
2014-8-27,83,74,63,69,65,59,98,74,49,30.00,29.93,0,0,0,0.00
2014-8-28,83,74,65,70,65,59,93,74,49,29.98,29.86,0,0,0,0.00
2014-8-29,78,70,65,70,67,64,98,89,75,29.87,29.77,0,0,0,0.00
2014-8-30,78,70,64,69,66,63,97,87,73,29.81,29.72,0,0,0,0.00
2014-8-31,76,70,66,70,67,64,97,89,77,29.82,29.75,0,0,0,0.00
2014-9-1,76,69,65,67,65,63,95,86,73,29.81,29.75,0,0,0,0.00
2014-9-2,78,72,65,69,66,62,94,82,70,29.83,29.74,0,0,0,0.00
2014-9-3,77,72,68,67,65,64,88,80,68,29.79,29.69,0,0,0,0.00
2014-9-4,77,70,64,67,65,62,94,83,68,29.77,29.69,0,0,0,0.00
2014-9-5,77,70,63,68,65,62,96,86,73,29.87,29.77,0,0,0,0.00
2014-9-6,78,72,67,71,68,62,95,87,77,29.89,29.77,0,0,0,0.00
2014-9-7,85,75,67,74,70,66,97,85,62,29.80,29.72,0,0,0,0.00
2014-9-8,87,76,70,72,68,50,96,78,30,29.85,29.78,0,0,0,0.00
2014-9-9,84,75,67,72,68,58,97,81,44,29.90,29.82,0,0,0,0.00
2014-9-10,79,72,65,70,67,62,98,84,68,29.88,29.78,0,0,0,0.00
2014-9-11,81,73,65,73,68,63,94,85,59,29.84,29.76,0,0,0,0.00
2014-9-12,81,73,66,73,69,63,98,87,58,29.81,29.72,0,0,0,0.00
2014-9-13,81,74,67,74,70,66,98,88,69,29.76,29.66,0,0,0,0.00
2014-9-14,84,75,67,74,70,66,98,85,67,29.74,29.66,0,0,0,0.00
2014-9-15,87,77,70,75,71,66,98,82,56,29.77,29.70,0,0,0,0.00
2014-9-16,91,80,70,73,70,67,97,73,49,29.76,29.64,0,0,0,0.00
2014-9-17,88,78,70,75,71,68,94,81,54,29.77,29.67,0,0,0,0.00
2014-9-18,79,72,67,70,68,66,96,85,70,29.86,29.77,0,0,0,0.00
2014-9-19,77,71,67,68,65,63,94,83,69,29.89,29.80,0,0,0,0.00
2014-9-20,76,70,65,66,64,62,92,81,67,29.92,29.85,0,0,0,0.00
2014-9-21,77,70,65,66,64,62,92,81,66,29.96,29.88,0,0,0,0.00
2014-9-22,76,69,65,67,65,64,96,86,73,29.96,29.87,0,0,0,0.00
2014-9-23,77,69,65,69,66,63,96,90,75,29.96,29.85,0,0,0,0.00
2014-9-24,79,71,65,70,67,64,98,87,71,29.89,29.79,0,0,0,0.00
2014-9-25,83,72,65,71,67,61,97,84,59,29.90,29.82,0,0,0,0.00
2014-9-26,76,71,66,70,67,62,97,88,76,29.88,29.81,0,0,0,0.00
2014-9-27,74,68,63,65,61,59,90,80,67,29.88,29.78,0,0,0,0.00
2014-9-28,74,66,60,63,60,58,93,81,63,29.92,29.83,0,0,0,0.00
2014-9-29,73,66,58,65,61,56,96,85,69,29.91,29.81,0,0,0,0.00
2014-9-30,76,68,59,69,64,58,98,88,66,29.86,29.74,0,0,0,0.00
2014-10-1,75,68,63,67,64,62,97,88,73,29.84,29.73,0,0,0,0.00
2014-10-2,88,72,60,69,58,41,99,66,30,29.94,29.83,0,0,0,0.00
2014-10-3,94,76,62,58,44,28,69,36,10,29.98,29.87,0,0,0,0.00
2014-10-4,89,74,61,69,53,37,95,55,18,29.92,29.82,0,0,0,0.00
2014-10-5,88,72,61,65,53,42,95,54,24,29.89,29.82,0,0,0,0.00
2014-10-6,89,73,58,68,51,37,92,50,17,29.89,29.79,0,0,0,0.00
2014-10-7,86,71,63,69,58,44,96,67,26,29.87,29.78,0,0,0,0.00
2014-10-8,79,68,57,69,63,55,97,86,62,29.87,29.78,0,0,0,0.00
2014-10-9,75,69,62,65,62,60,93,81,69,29.93,29.86,0,0,0,0.00
2014-10-10,74,67,61,66,63,59,96,87,74,29.97,29.89,0,0,0,0.00
2014-10-11,76,68,62,66,64,60,97,87,69,29.96,29.86,0,0,0,0.00
2014-10-12,75,68,64,66,64,62,96,88,73,29.91,29.83,0,0,0,0.00
2014-10-13,74,65,60,66,63,59,98,92,76,30.00,29.89,0,0,0,0.00
2014-10-14,75,68,62,65,64,61,97,86,69,29.98,29.88,0,0,0,0.00
2014-10-15,77,69,62,63,61,57,88,76,53,29.98,29.90,0,0,0,0.00
2014-10-16,75,68,61,65,61,58,91,81,65,29.99,29.90,0,0,0,0.00
2014-10-17,75,68,64,65,63,61,91,83,70,29.95,29.89,0,0,0,0.00
2014-10-18,74,67,62,63,61,59,94,83,67,29.91,29.81,0,0,0,0.00
2014-10-19,74,66,58,65,61,57,96,87,68,29.90,29.81,0,0,0,0.00
2014-10-20,73,67,62,66,63,60,97,88,74,29.92,29.84,0,0,0,0.00
2014-10-21,74,68,61,65,63,60,95,85,73,29.89,29.80,0,0,0,0.00
2014-10-22,77,66,58,67,62,57,98,88,61,29.94,29.83,0,0,0,0.00
2014-10-23,76,66,56,67,61,56,99,85,55,29.97,29.89,0,0,0,0.00
2014-10-24,84,69,55,65,57,51,96,70,34,29.98,29.89,0,0,0,0.00
2014-10-25,76,67,62,68,64,60,99,91,75,30.03,29.93,0,0,0,0.00
2014-10-26,72,64,58,66,61,56,98,89,73,29.99,29.86,0,0,0,0.00
2014-10-27,71,61,55,62,58,54,97,90,68,29.93,29.85,0,0,0,0.00
2014-10-28,72,61,56,64,59,55,98,92,76,29.99,29.92,0,0,0,0.00
2014-10-29,78,65,56,66,61,55,99,87,54,30.01,29.92,0,0,0,0.00
2014-10-30,75,65,57,67,62,56,98,91,70,29.98,29.90,0,0,0,0.00
2014-10-31,70,66,61,64,62,59,99,89,77,29.94,29.83,0,0,0,0.01
2014-11-1,70,64,57,61,55,49,95,75,57,29.98,29.83,0,0,0,0.00
2014-11-2,68,58,52,58,53,51,98,84,57,30.04,29.96,0,0,0,0.00
2014-11-3,71,60,50,58,52,47,96,76,46,30.12,30.03,0,0,0,0.00
2014-11-4,76,61,48,58,46,31,84,63,21,30.15,30.03,0,0,0,0.00
2014-11-5,83,66,50,53,38,22,70,40,11,30.08,29.95,0,0,0,0.00
2014-11-6,87,70,56,56,35,24,62,30,11,30.13,30.01,0,0,0,0.00
2014-11-7,87,70,59,50,36,31,42,31,14,30.08,29.94,0,0,0,0.00
2014-11-8,85,68,56,61,46,36,94,50,19,30.01,29.92,0,0,0,0.00
2014-11-9,71,62,55,63,59,54,99,90,70,29.97,29.79,0,0,0,0.00
2014-11-10,68,63,60,59,57,55,91,81,69,29.87,29.80,0,0,0,0.00
2014-11-11,70,65,62,57,55,54,81,72,60,29.93,29.86,0,0,0,0.00
2014-11-12,70,63,58,58,56,54,88,78,59,30.01,29.91,0,0,0,0.00
2014-11-13,69,64,60,60,57,55,91,81,68,30.07,29.98,0,0,0,0.00
2014-11-14,70,63,58,62,59,56,95,87,73,30.02,29.94,0,0,0,0.00
2014-11-15,69,62,56,61,57,54,96,86,69,30.06,29.97,0,0,0,0.00
2014-11-16,73,62,54,58,45,8,94,62,11,30.13,30.00,0,0,0,0.00
2014-11-17,72,59,48,51,39,12,69,48,19,30.12,30.03,0,0,0,0.00
2014-11-18,74,57,49,48,31,23,82,41,18,30.14,30.04,0,0,0,0.00
2014-11-19,69,58,48,58,49,36,94,72,42,30.12,30.04,0,0,0,0.00
2014-11-20,69,60,48,60,55,47,95,84,66,30.10,29.95,0,0,0,0.00
2014-11-21,69,61,54,59,56,52,97,85,67,30.03,29.90,0,0,0,0.00
2014-11-22,70,59,51,62,55,50,100,87,63,30.09,29.98,0,0,0,0.00
2014-11-23,70,60,52,62,50,27,98,72,32,30.12,30.00,0,0,0,0.00
2014-11-24,76,62,50,53,32,20,71,35,14,30.27,30.09,0,0,0,0.00
2014-11-25,77,64,54,50,31,15,73,33,11,30.34,30.22,0,0,0,0.00
2014-11-26,80,64,51,49,35,24,72,37,14,30.23,30.08,0,0,0,0.00
2014-11-27,87,68,57,48,36,27,67,33,12,30.08,29.96,0,0,0,0.00
2014-11-28,80,64,53,60,44,32,96,55,19,29.97,29.84,0,0,0,0.00
2014-11-29,72,58,47,60,54,44,97,85,53,29.92,29.81,0,0,0,0.00
2014-11-30,71,62,56,60,57,54,95,85,61,30.08,29.88,0,0,0,0.00
2014-12-1,67,60,53,61,56,51,95,88,69,30.13,29.96,0,0,0,0.00
2014-12-2,67,62,58,60,57,49,97,85,57,29.99,29.86,0,0,0,0.00
2014-12-3,66,64,61,65,63,60,98,98,97,29.97,29.88,0,0,0,0.00
2014-12-4,68,63,56,64,61,55,99,94,76,30.05,29.89,0,0,0,0.00
2014-12-5,66,60,54,62,58,54,99,94,76,30.13,30.01,0,0,0,0.00
2014-12-6,69,61,56,62,59,55,99,92,73,30.19,30.10,0,0,0,0.00
2014-12-7,79,62,54,63,58,53,100,88,48,30.16,30.05,0,0,0,0.00
2014-12-8,71,61,54,61,57,53,97,87,60,30.08,30.00,0,0,0,0.00
2014-12-9,74,61,52,62,56,51,99,87,48,30.08,29.96,0,0,0,0.00
2014-12-10,60,58,54,58,56,53,97,96,92,30.00,29.92,0,0,0,0.00
2014-12-11,68,62,58,60,58,57,97,89,75,29.98,29.88,0,0,0,0.00
2014-12-12,63,56,53,58,55,53,98,95,75,30.06,29.87,0,0,0,0.00
2014-12-13,64,55,49,57,52,47,99,88,66,30.13,30.05,0,0,0,0.00
2014-12-14,64,54,46,54,49,44,97,86,61,30.12,30.03,0,0,0,0.00
2014-12-15,50,49,48,48,47,46,95,94,94,30.04,30.00,0,0,0,0.00
2014-12-16,62,55,52,54,52,49,97,90,68,30.01,29.93,0,0,0,0.00
2014-12-17,64,58,52,59,53,48,98,85,63,30.11,29.94,0,0,0,0.00
2014-12-18,66,56,49,54,51,47,94,83,63,30.19,30.08,0,0,0,0.00
2014-12-19,66,56,48,56,51,47,96,85,61,30.22,30.10,0,0,0,0.00
2014-12-20,64,56,49,57,53,48,98,89,73,30.19,30.09,0,0,0,0.00
2014-12-21,66,58,51,58,54,49,97,88,69,30.14,30.01,0,0,0,0.00
2014-12-22,72,59,50,60,55,49,98,89,60,30.03,29.92,0,0,0,0.00
2014-12-23,78,63,51,64,52,39,99,72,36,30.06,29.95,0,0,0,0.00
2014-12-24,73,61,52,58,44,38,91,56,30,30.05,29.82,0,0,0,0.00
2014-12-25,68,58,46,57,48,32,91,71,28,29.90,29.76,0,0,0,0.00
2014-12-26,63,50,40,39,34,29,80,57,32,30.17,29.88,0,0,0,0.00
2014-12-27,62,52,43,37,28,20,55,40,21,30.30,30.16,0,0,0,0.00
2014-12-28,61,49,39,44,34,23,79,57,31,30.27,30.15,0,0,0,0.00
2014-12-29,63,51,42,49,44,38,92,78,58,30.15,30.01,0,0,0,0.00
2014-12-30,59,52,47,51,46,39,95,82,62,30.03,29.84,0,0,0,0.00
2014-12-31,53,44,37,44,35,23,94,73,34,30.06,29.82,0,0,0,0.00
2015-1-1,60,47,37,41,36,30,84,68,42,30.15,30.05,0,0,0,0.00
2015-1-2,59,48,36,47,41,33,90,79,57,30.15,30.05,0,0,0,0.00